Location: Aix
(50.4762°N, 1.8583°E)
Time: 08:47:25
(UTC+00:00)

Daily predictions for brighter satellites

Satellite Brightness Start Highest point End
(mag) Time Altitude Azimuth Time Altitude Azimuth Time Altitude Azimuth
BREEZE M DEB (TANK) 4.3 20:04:53 10° WSW 20:08:54 82° S 20:23:14 10° E
Terra 3.6 20:13:30 10° ESE 20:16:53 20° ENE 20:20:15 10° NNE
Meteor 1-11 Rocket 4.4 20:11:35 10° N 20:17:19 45° ENE 20:22:56 10° SE
MetOp-B 4.3 20:12:42 10° SSE 20:17:58 62° ENE 20:23:16 10° N
Cosmos 1515 Rocket 3.7 20:16:38 10° S 20:20:56 56° E 20:25:14 10° NNE
Cosmos 1340 Rocket 4.5 20:18:06 10° NNE 20:21:14 21° ENE 20:24:21 10° ESE
Cosmos 1633 Rocket 4.0 20:17:27 10° NNW 20:21:44 51° W 20:26:01 10° S
Tianhe-1 3.2 20:22:22 10° S 20:23:38 12° SSE 20:24:55 10° SE
Cosmos 2228 Rocket 4.1 20:20:00 10° SSE 20:23:48 28° E 20:27:40 10° NNE
Cosmos 2315 Rocket 4.2 20:18:15 10° S 20:24:38 85° W 20:31:04 10° N
Cosmos 1869 Rocket 4.5 20:21:01 10° N 20:24:59 33° ENE 20:28:55 10° SE
Resurs 01 Rocket 1.7 20:23:05 10° SSE 20:27:32 82° WSW 20:32:00 10° NNW
BREEZE M DEB (TANK) 2.1 20:23:44 10° W 20:29:00 60° SSW 20:31:13 10° ESE
SWARM A 4.2 20:26:02 10° N 20:29:22 70° E 20:32:39 10° S
Cosmos 2082 Rocket 2.2 20:24:03 10° NNW 20:29:43 89° WSW 20:35:21 10° SSE
Cosmos 1328 Rocket 4.0 20:27:34 10° SSW 20:31:57 68° WNW 20:36:21 10° N
USA 305 4.4 20:29:02 10° W 20:32:38 27° SW 20:36:13 10° SSE
SPOT 1/Viking Rocket 3.7 20:28:23 10° SSE 20:33:32 67° ENE 20:38:41 10° N
ERS-1 Rocket 3.8 20:29:35 10° SE 20:34:09 36° ENE 20:38:45 10° N
Cosmos 1470 Rocket 4.2 20:34:46 10° NNW 20:39:12 58° W 20:43:35 10° S
Cosmos 1943 Rocket 3.4 20:35:33 10° SSE 20:39:46 22° ESE 20:43:59 10° NE
Spot 2 Rocket 3.7 20:35:25 10° SSE 20:40:21 58° ENE 20:45:18 10° N
EP 1 4.3 20:38:10 10° SSW 20:41:12 63° SE 20:43:49 10° NE
ERBS 2.6 20:38:33 10° NW 20:41:50 62° NNE 20:44:57 11° ESE
OBJECT-B 3.7 20:40:24 10° SW 20:42:12 14° W 20:44:01 10° NW
Meteor 1-10 Rocket 4.3 20:37:55 10° S 20:43:26 64° E 20:49:07 10° NNE
Cosmos 1536 3.4 20:41:32 10° N 20:45:25 44° ENE 20:48:44 13° SE
CARTOSAT-1 3.9 20:42:25 12° SE 20:46:21 53° ENE 20:50:34 10° N
Landsat 7 4.1 20:41:47 10° S 20:46:32 71° WSW 20:51:19 10° NNW
CZ-2C R/B 3.7 20:42:15 10° NNE 20:46:46 64° ESE 20:51:20 10° S
SPOT 5 3.6 20:42:26 11° SE 20:47:08 46° ENE 20:52:14 10° N
SPOT 3 Rocket 4.0 20:44:52 10° S 20:49:57 61° WSW 20:55:05 10° NNW
Cosmos 1271 Rocket 2.7 20:46:18 10° S 20:50:17 73° E 20:54:18 10° NNE
COSMOS 2406 4.5 20:46:17 10° NW 20:51:24 36° WSW 20:56:31 10° S
Cosmos 1680 Rocket 3.6 20:47:29 10° NNW 20:52:50 76° ENE 20:57:31 14° SSE
Cosmos 1933 Rocket 4.0 20:48:38 10° NNW 20:52:57 62° W 20:57:14 10° S
ISS -3.2 20:51:39 10° SW 20:54:47 37° SSE 20:57:56 10° E
Cosmos 2278 Rocket 2.6 20:50:38 10° SW 20:56:16 69° WNW 21:01:57 10° NNE
Cosmos 2084 Rocket 3.5 20:53:03 10° NW 20:57:19 84° NE 21:00:52 16° SE
Cosmos 1544 3.6 20:55:20 10° N 20:58:48 42° ENE 21:01:17 17° SE
SJ 16-02 1.7 20:54:26 10° SSW 20:58:51 70° WNW 21:03:18 10° NNE
Cosmos 2369 Rocket 3.7 20:58:46 14° SE 21:01:14 18° E 21:04:55 10° ENE
Cosmos 1666 3.7 21:01:53 10° NNW 21:05:27 43° W 21:08:59 10° SSW
JB-3 4.4 21:05:01 10° NNE 21:08:50 55° E 21:12:01 14° S
Cosmos 1733 Rocket 4.0 21:05:48 10° N 21:09:44 33° ENE 21:12:25 17° SE
ARIANE 5 R/B 2.6 21:10:14 14° S 21:13:55 80° WSW 21:18:16 10° NNW
RESURS DK-1 4.0 21:10:57 10° NNW 21:14:28 25° NE 21:17:43 11° E
Cosmos 1812 4.3 21:11:18 10° SW 21:14:52 35° WNW 21:18:28 10° N
BREEZE-M DEB (TANK) 1.6 21:16:19 10° W 21:18:15 40° SSW 21:18:57 29° SSE
Iridium 4 Rocket 4.0 21:13:41 10° S 21:19:34 75° W 21:25:28 10° N
USA 245 3.5 21:18:31 16° SSW 21:19:58 31° W 21:22:13 10° NNW
Cosmos 990 Rocket 3.9 21:19:41 10° SSW 21:24:55 80° ESE 21:30:13 10° NNE
Cosmos 1898 Rocket 3.5 21:22:39 10° SSW 21:27:55 70° ESE 21:33:15 10° NNE
ATLAS 2AS CENTAUR R/B 3.1 21:22:10 10° NW 21:29:22 57° WSW 21:34:29 18° SSE
USA 215 4.1 21:23:54 10° ENE 21:30:10 51° N 21:36:26 10° WNW
SL-24 R/B - RUBIN 2 4.5 21:25:31 10° NW 21:30:48 50° WSW 21:34:02 20° S
Meteor 1-27 Rocket 3.9 21:25:35 10° SSW 21:31:28 87° WNW 21:37:27 10° NNE
Cosmos 44 4.1 21:27:10 10° NW 21:32:25 49° WSW 21:35:56 19° S
Cosmos 1818 3.7 21:29:43 10° NW 21:35:11 69° SW 21:38:46 22° SSE
Cosmos 2154 Rocket 4.3 21:29:12 10° NNW 21:35:29 69° W 21:40:59 14° S
Cosmos 1743 2.6 21:33:02 10° N 21:36:56 86° E 21:39:06 25° SSE
Cosmos 962 Rocket 4.4 21:34:13 10° N 21:40:22 82° E 21:44:45 20° SSE
Nadezhda 1 Rocket 4.2 21:36:19 10° SSW 21:42:35 76° W 21:48:48 10° N
BREEZE-M R/B 1.7 21:44:54 10° W 21:47:19 64° S 21:48:00 42° SE
H-2A R/B 3.4 21:45:52 10° NNE 21:50:03 68° ESE 21:52:23 25° S
Cosmos 44 Rocket 4.5 21:47:03 10° NNW 21:52:01 40° NE 21:56:13 13° ESE
Terra 2.0 21:51:09 23° S 21:54:09 70° WSW 21:58:55 10° NNW
Gbstr 26 Del rocket 4.4 21:47:03 10° WNW 21:54:26 54° SW 21:58:21 24° SSE
Cosmos 1461 3.1 21:50:55 10° SSW 21:55:35 68° SE 22:00:11 10° NE
Cosmos 1340 Rocket 3.7 21:54:01 10° NNW 21:57:54 43° W 22:00:21 20° SSW
Cosmos 1862 Rocket 3.6 21:57:49 29° SSE 21:59:49 60° E 22:04:05 10° NNE
Cosmos 2297 3.8 21:55:23 10° SSW 22:01:05 79° WNW 22:06:48 10° NNE
Cosmos 967 Rocket 4.5 21:55:41 10° SW 22:01:57 86° NW 22:08:18 10° NE
Okean 1 3.2 22:00:55 30° S 22:02:46 76° E 22:06:45 10° NNE
Resurs 01 Rocket 4.4 22:03:44 10° W 22:04:46 11° W 22:05:46 10° WNW
ATLAS CENTAUR R/B 2.4 22:10:15 25° ESE 22:10:15 25° ESE 22:12:51 10° ENE
Cosmos 1607 4.3 22:06:38 22° S 22:10:23 45° ESE 22:16:31 10° NE
ERS-1 Rocket 4.1 22:09:26 16° SSW 22:12:57 36° W 22:17:37 10° NNW
Cosmos 2082 Rocket 4.3 22:09:35 10° WNW 22:12:59 17° W 22:16:24 10° SW
Cosmos 2366 rocket 4.0 22:09:07 10° N 22:15:21 85° E 22:18:59 27° SSE
Cosmos 1515 3.9 22:13:58 26° SSW 22:15:54 64° WNW 22:19:41 10° N
ERBS 3.8 22:15:02 10° W 22:17:42 23° SW 22:17:42 23° SW
Cosmos 2181 Rocket 3.9 22:16:13 24° S 22:20:09 83° E 22:26:19 10° N
Cosmos 1707 Rocket 4.4 22:18:53 16° SW 22:22:11 47° WNW 22:26:29 10° N
Cosmos 1937 Rocket 3.9 22:17:22 10° SW 22:22:28 61° WNW 22:27:38 10° NNE
Cosmos 1943 Rocket 2.4 22:17:22 10° SW 22:22:59 72° WNW 22:28:36 10° NNE
SPOT 5 4.4 22:21:39 15° SSW 22:25:21 31° W 22:30:05 10° NNW
ISS -3.7 22:28:04 10° W 22:31:27 80° N 22:34:51 10° ENE
Cosmos 1867 3.6 22:28:40 25° SSW 22:31:46 61° SE 22:37:11 10° NE
Cosmos 1656 Rocket 3.8 22:30:07 32° S 22:32:27 53° ESE 22:37:50 10° NE
Spot 4 4.0 22:30:35 33° SE 22:32:42 67° ENE 22:37:31 10° N
DNEPR-1 R/B 4.5 22:29:11 10° SW 22:34:50 60° NW 22:39:33 10° NE
Cosmos 1238 Rocket 4.2 22:29:26 10° NNW 22:35:05 49° W 22:37:52 24° SSW
Cosmos 1975 3.2 22:35:59 10° NNW 22:39:53 57° W 22:41:09 38° SSW
Cosmos 1048 Rocket 4.0 22:35:13 10° NNW 22:40:33 82° WSW 22:42:47 36° SSE
Cosmos 2369 Rocket 2.2 22:40:29 20° SSW 22:44:31 86° WNW 22:50:13 10° NNE
Cosmos 2098 4.0 22:41:41 10° N 22:44:40 87° E 22:44:52 77° SSE
Cosmos 2218 Rocket 4.3 22:38:49 10° NNW 22:45:01 61° W 22:48:39 26° SSW
Cosmos 2344 4.3 22:37:25 10° NW 22:46:22 85° NE 22:56:38 17° SE
ALOS 2 3.0 22:47:43 35° SE 22:49:15 54° ENE 22:53:33 10° N
Okean 3 4.1 22:51:44 36° ESE 22:52:32 39° E 22:56:29 10° NNE
RESURS DK-1 2.8 22:48:41 10° NW 22:52:43 49° WSW 22:53:36 41° SSW
SL-27 R/B 2.2 22:49:26 10° NNW 22:52:47 78° WSW 22:53:01 71° SSW
Lacrosse 5 2.8 22:54:17 29° ESE 22:54:17 29° ESE 22:58:18 10° ENE
Cosmos 1356 Rocket 3.6 22:52:13 10° N 22:56:31 64° ENE 22:57:43 43° SE
NOSS 2-1 (E) 4.2 22:52:01 10° NW 22:56:44 75° NE 23:00:42 24° SE
Cosmos 1300 Rocket 4.3 22:57:21 10° N 23:01:33 42° ENE 23:02:56 32° ESE
Nadezhda 3 Rocket 4.0 22:59:44 33° SSE 23:02:34 67° E 23:08:42 10° NNE
Cosmos 1908 Rocket 4.2 23:03:18 10° NNW 23:07:37 46° W 23:09:03 34° SW
Meteor 1-12 Rocket 4.2 23:03:59 10° NNW 23:09:52 90° ENE 23:12:18 37° SSE
Cosmos 2298 Rocket 4.0 23:09:55 31° SSW 23:12:31 82° WNW 23:17:52 10° NNE
USA 215 3.7 23:06:17 10° E 23:12:43 63° NNE 23:19:09 10° WNW
Thor Agena Rocket 4.4 23:09:14 10° NNE 23:14:07 37° E 23:15:40 30° SE
Sich 1 Rocket 3.8 23:10:48 10° N 23:15:21 64° ENE 23:16:39 43° SE
COSMOS 2455 3.5 23:11:06 10° NNW 23:17:00 51° NE 23:21:45 16° ESE
Cosmos 1805 3.5 23:13:52 10° N 23:17:44 57° ENE 23:18:27 48° ESE
Cosmos 494 Rocket 4.3 23:13:51 10° NNW 23:18:54 54° WSW 23:20:30 38° SSW
Cosmos 1378 3.0 23:22:00 67° SSW 23:22:27 89° WNW 23:26:12 10° N
Cosmos 2242 Rocket 4.1 23:21:30 33° SW 23:23:11 53° WNW 23:27:36 10° N
Cosmos 1066 Rocket 4.3 23:22:33 38° S 23:24:44 69° E 23:30:18 10° NNE
MTI 4.0 23:22:13 10° NNE 23:24:49 54° ENE 23:24:49 54° ENE
Okean 2 Rocket 3.3 23:22:34 10° N 23:26:56 59° ENE 23:28:09 42° SE
Meteor 1-15 Rocket 4.3 23:21:49 10° N 23:27:35 80° ENE 23:30:02 37° SSE
COBE Rocket 4.0 23:26:12 42° S 23:28:01 83° WSW 23:33:15 10° NNW
Cosmos 2151 Rocket 4.2 23:24:31 10° N 23:28:56 49° ENE 23:30:21 36° SE
Cosmos 2227 Rocket 3.7 23:27:05 10° NNW 23:32:12 33° NE 23:37:16 10° ESE
Cosmos 44 Rocket 3.8 23:28:41 10° NW 23:33:43 49° WSW 23:34:54 41° SSW
Cosmos 2297 Rocket 3.3 23:29:10 10° NNW 23:34:32 41° NE 23:39:09 14° ESE
Okean 1-7 3.8 23:33:20 31° WSW 23:34:52 43° WNW 23:39:00 10° N
SAR-Lupe-2 3.4 23:31:41 10° NNE 23:35:18 86° ESE 23:35:36 73° S
Cosmos 1766 3.4 23:32:19 10° N 23:36:16 63° ENE 23:36:58 51° SE
Cosmos 1782 Rocket 4.4 23:35:59 10° NNW 23:40:06 38° W 23:41:12 33° SW
NOSS 2-1 (C) 4.3 23:38:17 10° NW 23:43:02 57° SW 23:45:14 37° S
COSMOS 2487 2.4 23:42:54 10° NNW 23:46:11 68° W 23:46:11 68° W
Cosmos 1125 Rocket 3.9 23:44:32 28° SW 23:47:13 59° WNW 23:52:23 10° NNE
ATLAS CENTAUR R/B 2.3 23:46:20 22° W 23:48:21 41° NW 23:52:03 10° NNE
NOSS 2-1 (D) 4.4 23:45:11 10° NW 23:49:56 51° SW 23:51:55 37° S
Cosmos 1934 Rocket 3.9 23:44:47 10° NNW 23:50:54 75° W 23:53:27 37° S
BREEZE-M DEB (TANK) 3.8 23:50:06 10° WNW 23:51:45 24° W 23:51:45 24° W
Cosmos 1378 Rocket 4.3 23:53:20 34° ESE 23:54:17 39° E 23:58:18 10° NNE
Cosmos 1470 3.8 23:52:10 10° N 23:55:52 38° ENE 23:57:01 30° ESE
